Regional Weather Roundup
Issued by NWS Sioux Falls, SD

Home | Current Version | Previous Version | Text Only | Print | Product List | Glossary On
Versions: 1 2 3 4 5 6 7 8 9 10 11 12 13 14 15 16 17 18 19 20 21 22 23 24 25 26 27 28 29 30 31 32 33 34 35 36 37 38 39 40 41 42 43 44 45 46 47 48 49 50
000
ASUS43 KFSD 031210
RWRFSD

WEATHER ROUNDUP FOR SE SOUTH DAKOTA/SW MINNESOTA/NW IOWA
NATIONAL WEATHER SERVICE SIOUX FALLS SD
700 AM CDT TUE AUG 03 2021

NOTE: "FAIR" INDICATES FEW OR NO CLOUDS BELOW 12,000 FEET WITH NO
SIGNIFICANT WEATHER AND OR OBSTRUCTIONS TO VISIBILITY.


SDZ038>040-050-052>070-031300-
SOUTHEAST SOUTH DAKOTA

CITY           SKY/WX    TMP DP  RH WIND       PRES   REMARKS
BROOKINGS      PTCLDY    59  56  89 SE3       30.12S FOG
CHAMBERLAIN    CLEAR     59  59 100 CALM      30.08S
6HR MIN TEMP:  58; 6HR MAX TEMP:  63;

HURON          CLEAR     59  57  93 S7        30.08S FOG
6HR MIN TEMP:  57; 6HR MAX TEMP:  66;

MITCHELL       CLEAR     60  58  92 SE7       30.10R FOG
6HR MIN TEMP:  59; 6HR MAX TEMP:  65;

SIOUX FALLS    PTCLDY    64  56  75 CALM      30.12R
6HR MIN TEMP:  62; 6HR MAX TEMP:  69;

WINNER         CLEAR     60  55  83 SE7       30.07S
YANKTON        CLEAR     58  57  97 E3        30.12S FOG
$$

MNZ071-072-080-081-089-090-097-098-031300-
SOUTHWEST MINNESOTA

CITY           SKY/WX    TMP DP  RH WIND       PRES   REMARKS
FAIRMONT       PTCLDY    56  53  90 CALM      30.14R
JACKSON        CLEAR     55  52  88 CALM      30.15R
LUVERNE        PTCLDY    52  50  93 CALM      30.14  FOG
MARSHALL       CLEAR     63  58  83 SW10      30.10R
6HR MIN TEMP:  60; 6HR MAX TEMP:  63;

MONTEVIDEO     CLEAR     55  52  88 CALM      30.10R FOG
PIPESTONE      PTCLDY    55  54  94 CALM      30.13R FOG
REDWOOD FALLS  PTCLDY    56  53  90 CALM      30.10R FOG
TRACY          CLEAR     63  54  74 SW8       30.11S
WINDOM         CLEAR     59  54  82 S3        30.13S
WORTHINGTON    CLEAR     59  56  89 SW6       30.14S
$$

IAZ001>003-012>014-020>022-031-032-NEZ013-014-SDZ071-031300-
NORTHWEST IOWA

CITY           SKY/WX    TMP DP  RH WIND       PRES   REMARKS
CHEROKEE       CLEAR     53  53 100 CALM      30.15R
DENISON        PTCLDY    54  54 100 CALM      30.16S
ESTHERVILLE    CLEAR     56  53  90 S7        30.14R
LE MARS        CLEAR     54  52  94 CALM      30.12S FOG
SHELDON          N/A    N/A N/A N/A MISG        N/A
SIOUX CITY     CLEAR    N/A N/A N/A MISG      30.13S
SPENCER        CLEAR     55  52  89 S5        30.15R FOG
6HR MIN TEMP:  52; 6HR MAX TEMP:  59;

STORM LAKE     CLEAR     57  57 100 SW6       30.15R
$$

ABBREVIATIONS USED IN REMARKS
   TC - TEMPERATURE IN CELSIUS
  WCI - WIND CHILL INDEX
   HX - HEAT INDEX
  VSB - VISIBILITY




USA.gov is the U.S. government's official web portal to all federal, state and local government web resources and services.